Tillbaka till svenska Fidonet
English   Information   Debug  
FILM   0/18
FNEWS_PUBLISH   4926
FN_SYSOP   42201
FN_SYSOP_OLD1   71952
FTP_FIDO   0/2
FTSC_PUBLIC   0/13972
FUNNY   0/4886
GENEALOGY.EUR   0/71
GET_INFO   105
GOLDED   0/408
HAM   0/16660
HOLYSMOKE   0/6791
HOT_SITES   0/1
HTMLEDIT   0/71
HUB203   466
HUB_100   264
HUB_400   39
HUMOR   0/29
IC   0/2851
INTERNET   0/424
INTERUSER   0/3
IP_CONNECT   719
JAMNNTPD   0/233
JAMTLAND   0/47
KATTY_KORNER   0/41
LAN   0/16
LINUX-USER   0/19
LINUXHELP   0/1155
LINUX   0/22300
LINUX_BBS   0/957
mail   18.68
mail_fore_ok   249
MENSA   0/341
MODERATOR   0/102
MONTE   0/992
MOSCOW_OKLAHOMA   0/1245
MUFFIN   0/783
MUSIC   0/321
N203_STAT   938
N203_SYSCHAT   313
NET203   321
NET204   69
NET_DEV   0/10
NORD.ADMIN   0/101
NORD.CHAT   0/2572
NORD.FIDONET   189
NORD.HARDWARE   0/28
NORD.KULTUR   0/114
NORD.PROG   0/32
NORD.SOFTWARE   0/88
NORD.TEKNIK   0/58
NORD   0/453
OCCULT_CHAT   0/93
OS2BBS   0/787
OS2DOSBBS   0/580
OS2HW   0/42
OS2INET   0/37
OS2LAN   0/134
OS2PROG   0/36
OS2REXX   0/113
OS2USER-L   207
OS2   0/4830
OSDEBATE   0/18996
PASCAL   0/490
PERL   0/457
PHP   0/45
POINTS   0/405
POLITICS   0/29554
POL_INC   0/14731
PSION   103
R20_ADMIN   1133
R20_AMATORRADIO   0/2
R20_BEST_OF_FIDONET   16
R20_CHAT   0/896
R20_DEPP   0/3
R20_DEV   400
R20_ECHO2   1830
R20_ECHOPRES   0/35
R20_ESTAT   0/719
R20_FIDONETPROG...
...RAM.MYPOINT
  0/2
R20_FIDONETPROGRAM   0/22
R20_FIDONET   0/248
R20_FILEFIND   0/24
R20_FILEFOUND   0/22
R20_HIFI   0/3
R20_INFO2   3723
R20_INTERNET   0/12940
R20_INTRESSE   0/60
R20_INTR_KOM   0/99
R20_KANDIDAT.CHAT   42
R20_KANDIDAT   28
R20_KOM_DEV   112
R20_KONTROLL   0/13360
R20_KORSET   0/18
R20_LOKALTRAFIK   0/24
R20_MODERATOR   0/1852
R20_NC   76
R20_NET200   245
R20_NETWORK.OTH...
...ERNETS
  0/13
R20_OPERATIVSYS...
...TEM.LINUX
  0/44
R20_PROGRAMVAROR   0/1
R20_REC2NEC   534
R20_SFOSM   0/341
R20_SF   0/108
R20_SPRAK.ENGLISH   0/1
R20_SQUISH   107
R20_TEST   2
R20_WORST_OF_FIDONET   20
RAR   0/9
RA_MULTI   106
RA_UTIL   0/162
REGCON.EUR   0/2068
REGCON   0/13
SCIENCE   0/1206
SF   0/239
SHAREWARE_SUPPORT   0/5146
SHAREWRE   0/14
SIMPSONS   0/169
STATS_OLD1   0/2539.065
STATS_OLD2   0/2530
STATS_OLD3   0/2395.095
STATS_OLD4   0/1692.25
SURVIVOR   0/495
SYSOPS_CORNER   0/3
SYSOP   0/84
TAGLINES   0/112
TEAMOS2   0/4530
TECH   0/2617
TEST.444   0/105
TRAPDOOR   0/19
TREK   0/755
TUB   0/290
UFO   0/40
UNIX   0/1316
USA_EURLINK   0/102
USR_MODEMS   0/1
VATICAN   0/2740
VIETNAM_VETS   0/14
VIRUS   0/378
VIRUS_INFO   0/201
VISUAL_BASIC   0/473
WHITEHOUSE   0/5187
WIN2000   0/101
WIN32   0/30
WIN95   0/4291
WIN95_OLD1   0/70272
WINDOWS   0/1517
WWB_SYSOP   0/419
WWB_TECH   0/810
ZCC-PUBLIC   0/1
ZEC   4

 
4DOS   0/134
ABORTION   0/7
ALASKA_CHAT   0/506
ALLFIX_FILE   0/1313
ALLFIX_FILE_OLD1   0/7997
ALT_DOS   0/152
AMATEUR_RADIO   0/1039
AMIGASALE   0/14
AMIGA   0/331
AMIGA_INT   0/1
AMIGA_PROG   0/20
AMIGA_SYSOP   0/26
ANIME   0/15
ARGUS   0/924
ASCII_ART   0/340
ASIAN_LINK   0/651
ASTRONOMY   0/417
AUDIO   0/92
AUTOMOBILE_RACING   0/105
BABYLON5   0/17862
BAG   135
BATPOWER   0/361
BBBS.ENGLISH   0/382
BBSLAW   0/109
BBS_ADS   0/5290
BBS_INTERNET   0/507
BIBLE   0/3563
BINKD   0/1119
BINKLEY   0/215
BLUEWAVE   0/2173
CABLE_MODEMS   0/25
CBM   0/46
CDRECORD   0/66
CDROM   0/20
CLASSIC_COMPUTER   0/378
COMICS   0/15
CONSPRCY   0/899
COOKING   41444
COOKING_OLD1   0/24719
COOKING_OLD2   0/40862
COOKING_OLD3   0/37489
COOKING_OLD4   0/35496
COOKING_OLD5   9370
C_ECHO   0/189
C_PLUSPLUS   0/31
DIRTY_DOZEN   0/201
DOORGAMES   0/2285
DOS_INTERNET   0/196
duplikat   6102
ECHOLIST   0/18295
EC_SUPPORT   0/318
ELECTRONICS   0/359
ELEKTRONIK.GER   1534
ENET.LINGUISTIC   0/13
ENET.POLITICS   0/4
ENET.SOFT   0/11701
ENET.SYSOP   34296
ENET.TALKS   0/32
ENGLISH_TUTOR   0/2000
EVOLUTION   0/1335
FDECHO   0/217
FDN_ANNOUNCE   0/7068
FIDONEWS   25062
FIDONEWS_OLD1   0/49742
FIDONEWS_OLD2   0/35949
FIDONEWS_OLD3   0/30874
FIDONEWS_OLD4   0/37224
FIDO_SYSOP   12922
FIDO_UTIL   0/180
FILEFIND   0/209
FILEGATE   0/212
Möte HAM, 16660 texter
 lista första sista föregående nästa
Text 5240, 979 rader
Skriven 2012-05-04 01:30:58 av Amsat List (1:323/120.0)
Ärende: [keps] orb12124.amsa
============================
[keps] orb12124.amsa

Sender: keps-bounces@amsat.org
Return-Path: <keps-bounces@amsat.org>
X-Rcpt: craig.healy@chowda.com
X-UIDL: 1336108397.356

SB KEPS @ AMSAT  $ORB12124.O
Orbital Elements  12124.OSCAR

HR AMSAT ORBITAL ELEMENTS FOR OSCAR SATELLITES
FROM WA5QGD FORT WORTH,TX May 3, 2012
Send SUBSCRIBE KEPS/UNSUBSCRIBE KEPS to majordomo@amsat.org only
BID: ORB12124.O
TO ALL RADIO AMATEURS BT

Satellite: AO-07
Catalog number: 07530
Epoch time:      12123.57638698
Element set:    0372
Inclination:      101.4013 deg
RA of node:       122.5493 deg
Eccentricity:    0.0012071
Arg of perigee:   012.8884 deg
Mean anomaly:     347.2492 deg
Mean motion:   12.53589002 rev/day
Decay rate:       -2.7e-07 rev/day^2
Epoch rev:           71433
Checksum:              278

Satellite: FO-29
Catalog number: 24278
Epoch time:      12123.85437848
Element set:    0842
Inclination:      098.5818 deg
RA of node:       230.4468 deg
Eccentricity:    0.0351021
Arg of perigee:   146.5653 deg
Mean anomaly:     215.8193 deg
Mean motion:   13.52982018 rev/day
Decay rate:       -7.0e-08 rev/day^2
Epoch rev:           77582
Checksum:              329

Satellite: SO-33
Catalog number: 25509
Epoch time:      12124.69081246
Element set:     223
Inclination:      031.4332 deg
RA of node:       225.4989 deg
Eccentricity:    0.0352356
Arg of perigee:   174.0112 deg
Mean anomaly:     186.4876 deg
Mean motion:   14.28721209 rev/day
Decay rate:       4.47e-06 rev/day^2
Epoch rev:           70628
Checksum:              299

Satellite: RS-22
Catalog number: 27939
Epoch time:      12124.70886769
Element set:     321
Inclination:      097.8166 deg
RA of node:       327.8014 deg
Eccentricity:    0.0014318
Arg of perigee:   049.2108 deg
Mean anomaly:     311.0338 deg
Mean motion:   14.63991999 rev/day
Decay rate:       4.13e-06 rev/day^2
Epoch rev:           45937
Checksum:              329

Satellite: VO-52
Catalog number: 28650
Epoch time:      12123.57624796
Element set:    0092
Inclination:      097.6018 deg
RA of node:       156.7565 deg
Eccentricity:    0.0026284
Arg of perigee:   188.2184 deg
Mean anomaly:     171.8629 deg
Mean motion:   14.82863615 rev/day
Decay rate:       7.72e-06 rev/day^2
Epoch rev:           37821
Checksum:              339

Satellite: HO-68
Catalog number: 36122
Epoch time:      12124.82712644
Element set:     430
Inclination:      100.3651 deg
RA of node:       185.0611 deg
Eccentricity:    0.0007309
Arg of perigee:   208.1779 deg
Mean anomaly:     151.8939 deg
Mean motion:   13.16294939 rev/day
Decay rate:       -4.4e-07 rev/day^2
Epoch rev:           11455
Checksum:              289

/EX
SB KEPS @ AMSAT  $ORB12124.D
Orbital Elements  12124.MICROS

HR AMSAT ORBITAL ELEMENTS FOR THE MICROSATS
FROM WA5QGD FORT WORTH,TX May 3, 2012
Send SUBSCRIBE KEPS/UNSUBSCRIBE KEPS to majordomo@amsat.org only
BID: ORB12124.D
TO ALL RADIO AMATEURS BT

Satellite: UO-11
Catalog number: 14781
Epoch time:      12123.76877473
Element set:    0866
Inclination:      097.9566 deg
RA of node:       183.6784 deg
Eccentricity:    0.0008949
Arg of perigee:   173.4305 deg
Mean anomaly:     186.7024 deg
Mean motion:   14.80406638 rev/day
Decay rate:       4.30e-06 rev/day^2
Epoch rev:           51321
Checksum:              330

Satellite: AO-16
Catalog number: 20439
Epoch time:      12124.85970168
Element set:     457
Inclination:      098.4265 deg
RA of node:       069.4829 deg
Eccentricity:    0.0010231
Arg of perigee:   294.4805 deg
Mean anomaly:     065.5311 deg
Mean motion:   14.32045133 rev/day
Decay rate:       1.81e-06 rev/day^2
Epoch rev:           16365
Checksum:              294

Satellite: LO-19
Catalog number: 20442
Epoch time:      12123.98125887
Element set:    0396
Inclination:      098.3920 deg
RA of node:       071.7930 deg
Eccentricity:    0.0011023
Arg of perigee:   286.8798 deg
Mean anomaly:     073.1178 deg
Mean motion:   14.32263575 rev/day
Decay rate:       1.56e-06 rev/day^2
Epoch rev:           16371
Checksum:              315

Satellite: AO-27
Catalog number: 22825
Epoch time:      12123.88821644
Element set:      93
Inclination:      098.5695 deg
RA of node:       067.4146 deg
Eccentricity:    0.0009232
Arg of perigee:   055.4095 deg
Mean anomaly:     304.7956 deg
Mean motion:   14.29452718 rev/day
Decay rate:       1.29e-06 rev/day^2
Epoch rev:           97000
Checksum:              319

Satellite: IO-26
Catalog number: 22826
Epoch time:      12123.89775932
Element set:     843
Inclination:      098.5661 deg
RA of node:       067.8066 deg
Eccentricity:    0.0009862
Arg of perigee:   049.5091 deg
Mean anomaly:     310.6945 deg
Mean motion:   14.29726005 rev/day
Decay rate:       1.84e-06 rev/day^2
Epoch rev:           97013
Checksum:              330

Satellite: GO-32
Catalog number: 25397
Epoch time:      12123.49131403
Element set:    0767
Inclination:      098.3595 deg
RA of node:       104.4584 deg
Eccentricity:    0.0002171
Arg of perigee:   069.1963 deg
Mean anomaly:     290.9445 deg
Mean motion:   14.23271170 rev/day
Decay rate:        5.8e-07 rev/day^2
Epoch rev:           71752
Checksum:              302

Satellite: NO-44
Catalog number: 26931
Epoch time:      12123.78286571
Element set:      30
Inclination:      067.0518 deg
RA of node:       237.3593 deg
Eccentricity:    0.0007330
Arg of perigee:   270.5889 deg
Mean anomaly:     089.4377 deg
Mean motion:   14.29788357 rev/day
Decay rate:      -1.02e-06 rev/day^2
Epoch rev:           55275
Checksum:              326

